DW8495 Weather Reports


time (UTC)temp
C
wind
direction
speed
KPH
gust
KPH
rain 1hr
cm
rain 24hr
cm
rain mn
cm
humidity
%
barometer
mb
20260504193333 27 93 8.0 11.3 0.00 1.75 1.75 75 1015.5
20260504192832 27 77 12.9 14.5 0.00 1.75 1.75 74 1015.6
20260504192329 27 56 6.4 9.7 0.00 1.75 1.75 74 1015.6
20260504191827 28 47 9.7 12.9 0.00 1.75 1.75 72 1015.7
20260504191324 28 124 6.4 11.3 0.00 1.75 1.75 72 1015.8
20260504190820 28 49 9.7 12.9 0.00 1.75 1.75 72 1015.9
20260504190316 27 49 3.2 4.8 0.00 1.75 1.75 75 1016.1
20260504185813 27 51 6.4 8.0 0.00 1.75 1.75 74 1016.1
20260504185310 27 74 8.0 11.3 0.00 1.75 1.75 74 1016.1
20260504184806 27 66 4.8 9.7 0.00 1.75 1.75 75 1016.3
20260504184302 27 84 8.0 14.5 0.00 1.75 1.75 74 1016.2
20260504183758 27 83 4.8 9.7 0.00 1.75 1.75 74 1016.4
20260504183255 27 68 8.0 12.9 0.00 1.75 1.75 74 1016.5
20260504182753 27 74 3.2 4.8 0.00 1.75 1.75 74 1016.6
20260504182250 28 20 9.7 9.7 0.00 1.75 1.75 72 1016.4
20260504181748 28 14 4.8 11.3 0.00 1.75 1.75 73 1016.4
20260504181244 28 85 8.0 11.3 0.00 1.75 1.75 72 1016.4
20260504180744 28 49 8.0 11.3 0.00 1.75 1.75 72 1016.7
20260504180242 27 55 8.0 9.7 0.00 1.75 1.75 73 1016.7
20260504175739 27 41 4.8 4.8 0.00 1.75 1.75 73 1016.5
20260504175236 27 90 4.8 8.0 0.00 1.75 1.75 75 1016.3
20260504174734 28 40 6.4 11.3 0.00 1.75 1.75 73 1016.4
20260504174232 28 25 4.8 8.0 0.00 1.75 1.75 72 1016.5
20260504173727 28 59 4.8 8.0 0.00 1.75 1.75 74 1016.5
20260504173225 28 104 1.6 1.6 0.00 1.75 1.75 74 1016.7
20260504172721 28 34 8.0 12.9 0.00 1.75 1.75 73 1016.7
20260504172218 27 66 8.0 11.3 0.00 1.75 1.75 75 1016.7
20260504171714 27 68 3.2 4.8 0.00 1.75 1.75 76 1016.8
20260504171211 27 30 11.3 11.3 0.00 1.75 1.75 74 1016.9
20260504170708 27 5 9.7 12.9 0.00 1.75 1.75 74 1017.0
20260504170206 28 59 11.3 16.1 0.00 1.75 1.75 73 1016.8
20260504160124 28 23 3.2 3.2 0.00 1.75 1.75 73 1017.1
20260504151051 27 89 0.0 0.0 0.00 1.75 1.75 73 1017.3
20260504150549 27 78 1.6 1.6 0.00 1.75 1.75 74 1017.1
20260504141015 27 22 6.4 9.7 0.00 1.75 1.75 75 1017.0
20260504140511 27 68 3.2 4.8 0.00 1.75 1.75 77 1016.9
20260504130436 26 340 8.0 9.7 0.00 1.75 1.75 84 1016.4
20260504110323 23 26 3.2 3.2 0.00 1.75 1.75 92 1015.5
20260504100240 23 10 3.2 3.2 0.00 1.75 1.75 92 1015.4
20260504081628 23 55 0.0 0.0 0.00 1.75 1.75 92 1015.0
20260504081124 23 60 0.0 0.0 0.00 1.75 1.75 92 1015.2
20260504080621 23 9 1.6 1.6 0.00 1.75 1.75 92 1015.3
20260504080117 23 20 3.2 3.2 0.00 1.75 1.75 92 1015.2
20260504050433 25 174 9.7 11.3 0.00 0.00 0.00 89 1016.7
20260504045931 25 177 8.0 12.9 0.00 0.00 0.00 90 1016.6
20260504045426 25 138 8.0 12.9 0.00 0.00 0.00 90 1016.5
20260504044922 25 150 12.9 16.1 0.00 0.00 0.00 90 1016.8
20260504044420 25 169 6.4 9.7 0.00 0.00 0.00 90 1016.6
20260504043917 25 115 6.4 9.7 0.00 0.00 0.00 91 1016.6
20260504043414 25 122 8.0 11.3 0.00 0.00 0.00 91 1016.9
20260504042911 25 140 6.4 11.3 0.00 0.00 0.00 91 1016.9
20260504042408 25 145 8.0 11.3 0.00 0.00 0.00 91 1017.2
20260504041904 25 190 4.8 4.8 0.00 0.00 0.00 91 1017.0
20260504041401 25 159 4.8 8.0 0.00 0.00 0.00 91 1016.8
20260504040856 25 158 4.8 9.7 0.00 0.00 0.00 91 1016.7
20260504040354 25 163 6.4 8.0 0.00 0.00 0.00 92 1016.9
20260504035850 24 158 8.0 11.3 0.00 0.89 0.89 92 1016.8
20260504035348 25 141 8.0 9.7 0.00 0.89 0.89 92 1016.8
20260504034844 25 185 8.0 11.3 0.00 0.89 0.89 92 1016.8
20260504034342 25 115 1.6 1.6 0.00 0.89 0.89 92 1016.9
20260504033839 25 149 4.8 9.7 0.00 0.89 0.89 92 1016.9
20260504033337 24 153 9.7 14.5 0.00 0.89 0.89 92 1017.0
20260504032833 24 169 8.0 9.7 0.00 0.89 0.89 92 1017.0
20260504032331 24 168 9.7 14.5 0.00 0.89 0.89 92 1016.9
20260504031827 24 164 8.0 11.3 0.00 0.89 0.89 92 1016.7
20260504031324 24 144 9.7 11.3 0.00 0.89 0.89 92 1016.6
20260504030820 23 140 8.0 11.3 0.00 0.89 0.89 93 1016.7
20260504030318 23 153 8.0 9.7 0.00 0.89 0.89 92 1017.0
20260504025814 23 164 4.8 4.8 0.00 0.89 0.89 92 1017.4
20260504025311 23 133 4.8 4.8 0.00 0.89 0.89 92 1017.3
20260504024808 23 107 4.8 9.7 0.00 0.89 0.89 92 1017.3
20260504024304 23 158 11.3 12.9 0.00 0.89 0.89 92 1017.4
20260504023801 23 145 8.0 11.3 0.00 0.89 0.89 92 1017.8
20260504023257 24 137 4.8 4.8 0.18 0.89 0.89 91 1017.8
20260504022754 24 110 8.0 9.7 1.55 0.89 0.89 91 1017.3
20260504022250 24 167 12.9 16.1 2.87 0.86 0.86 91 1017.3
20260504021747 25 133 14.5 25.7 2.77 0.66 0.66 90 1017.0
20260504021244 25 154 9.7 11.3 2.16 0.46 0.46 89 1017.4
20260504020741 25 181 19.3 22.5 0.48 0.18 0.18 88 1017.0
20260504020238 25 112 14.5 20.9 0.18 0.10 0.10 88 1016.0
20260504015734 25 114 17.7 25.7 0.18 0.10 0.10 86 1016.5
20260504015230 26 152 14.5 25.7 0.00 0.08 0.08 85 1016.5
20260504014726 26 97 11.3 14.5 0.00 0.08 0.08 83 1016.9
20260504014223 26 120 8.0 12.9 0.00 0.08 0.08 83 1016.5
20260504013721 26 114 8.0 14.5 0.00 0.08 0.08 82 1016.8
20260504013218 26 128 11.3 14.5 0.00 0.08 0.08 83 1016.6
20260504012714 26 106 9.7 14.5 0.00 0.08 0.08 83 1016.4
20260504012213 26 110 4.8 9.7 0.00 0.08 0.08 82 1016.6
20260504011709 26 119 9.7 11.3 0.00 0.08 0.08 82 1016.3
20260504011206 26 104 9.7 12.9 0.00 0.08 0.08 82 1016.3
20260504010702 26 129 8.0 8.0 0.00 0.08 0.08 82 1016.4
20260504010158 26 103 6.4 9.7 0.00 0.08 0.08 82 1016.3
20260504005654 26 155 8.0 9.7 0.00 0.08 0.08 81 1016.7
20260504005151 26 123 11.3 12.9 0.00 0.08 0.08 81 1016.4
20260504004649 26 110 8.0 9.7 0.00 0.08 0.08 80 1016.4
20260504004146 26 96 4.8 8.0 0.00 0.08 0.08 80 1016.4
20260504003642 26 83 8.0 9.7 0.00 0.08 0.08 79 1016.3
20260504003139 26 114 4.8 4.8 0.00 0.08 0.08 80 1016.3
20260504002636 26 87 3.2 4.8 0.00 0.08 0.08 80 1016.2
20260504002134 26 62 4.8 4.8 0.00 0.08 0.08 80 1016.2
20260504001632 26 94 4.8 8.0 0.00 0.08 0.08 80 1016.1
20260504001127 26 94 4.8 4.8 0.00 0.08 0.08 80 1016.3
20260504000625 26 63 3.2 4.8 0.00 0.08 0.08 80 1016.1
20260504000122 26 81 6.4 9.7 0.00 0.08 0.08 80 1016.1
20260503235620 26 80 6.4 9.7 0.00 0.08 0.08 80 1016.1
20260503235116 26 81 4.8 8.0 0.00 0.08 0.08 80 1015.9
20260503234614 26 83 4.8 4.8 0.00 0.08 0.08 80 1015.9
20260503234112 26 76 8.0 11.3 0.00 0.08 0.08 80 1015.9
20260503233609 26 70 4.8 8.0 0.00 0.08 0.08 80 1015.6
20260503233104 26 98 4.8 8.0 0.00 0.08 0.08 79 1015.6
20260503232601 26 49 1.6 4.8 0.00 0.08 0.08 79 1015.3
20260503232059 27 45 3.2 3.2 0.00 0.08 0.08 79 1015.3
20260503231556 27 61 3.2 4.8 0.00 0.08 0.08 79 1015.0
20260503231053 26 72 4.8 4.8 0.00 0.08 0.08 78 1015.1
20260503230549 27 56 3.2 4.8 0.00 0.08 0.08 78 1015.1
20260503230047 26 77 4.8 8.0 0.00 0.08 0.08 78 1015.4
20260503225544 27 70 6.4 9.7 0.00 0.08 0.08 78 1015.3
20260503225039 26 56 4.8 9.7 0.00 0.08 0.08 78 1015.5
20260503224537 26 67 8.0 9.7 0.00 0.08 0.08 78 1015.6
20260503224035 27 77 3.2 3.2 0.00 0.08 0.08 79 1015.4
20260503223533 27 81 6.4 9.7 0.00 0.08 0.08 79 1015.3
20260503223028 27 61 6.4 8.0 0.00 0.08 0.08 79 1015.2
20260503222526 27 76 6.4 8.0 0.00 0.08 0.08 79 1015.2
20260503222024 27 58 3.2 4.8 0.00 0.08 0.08 79 1015.1
20260503221522 27 71 9.7 14.5 0.00 0.08 0.08 79 1015.2
20260503221019 27 62 4.8 8.0 0.00 0.08 0.08 79 1015.2
20260503220515 27 58 4.8 4.8 0.00 0.08 0.08 78 1015.1
20260503220012 27 39 8.0 14.5 0.00 0.08 0.08 77 1014.8
20260503215509 27 48 6.4 9.7 0.00 0.08 0.08 77 1014.9
20260503215006 27 51 6.4 9.7 0.00 0.08 0.08 76 1015.0
20260503214504 27 55 6.4 11.3 0.00 0.08 0.08 75 1015.1
20260503214001 27 56 4.8 8.0 0.00 0.08 0.08 75 1015.2
20260503213459 28 13 6.4 9.7 0.00 0.08 0.08 74 1015.3
20260503212955 28 38 6.4 8.0 0.00 0.08 0.08 74 1015.4
20260503212453 27 72 3.2 3.2 0.00 0.08 0.08 76 1015.1
20260503211950 27 36 3.2 4.8 0.00 0.08 0.08 77 1015.3
20260503211447 27 83 3.2 4.8 0.00 0.08 0.08 76 1015.4
20260503210942 27 47 6.4 9.7 0.00 0.08 0.08 77 1015.5
20260503210439 27 64 6.4 8.0 0.00 0.08 0.08 77 1015.3
20260503205934 27 52 6.4 9.7 0.00 0.08 0.08 77 1015.5
20260503205432 27 70 11.3 14.5 0.00 0.08 0.08 77 1015.7
20260503204927 27 72 8.0 11.3 0.00 0.08 0.08 77 1015.8
20260503204425 27 46 8.0 11.3 0.00 0.08 0.08 77 1015.7
20260503203922 27 14 6.4 9.7 0.00 0.08 0.08 77 1015.7
20260503203419 27 42 8.0 12.9 0.00 0.08 0.08 77 1016.1
20260503202916 27 74 4.8 9.7 0.00 0.08 0.08 77 1016.0
20260503202414 27 91 4.8 8.0 0.00 0.08 0.08 77 1016.0
20260503201913 27 31 4.8 8.0 0.00 0.08 0.08 76 1016.1
20260503201409 27 35 6.4 11.3 0.00 0.08 0.08 76 1016.2
20260503200907 27 41 6.4 11.3 0.00 0.08 0.08 76 1016.3
20260503200403 27 36 6.4 8.0 0.00 0.08 0.08 76 1016.2
20260503195900 27 84 8.0 16.1 0.00 0.08 0.08 77 1016.4
20260503195356 27 50 3.2 4.8 0.00 0.08 0.08 77 1016.2
20260503194853 27 70 6.4 9.7 0.00 0.08 0.08 77 1016.1
20260503194350 27 10 4.8 8.0 0.00 0.08 0.08 79 1016.5
20260503193846 27 45 9.7 12.9 0.00 0.08 0.08 78 1016.0